Simultaneous Nadir Overpasses (SNOs) Predictions

Prediction of SNOs between FY3D and METOP-C Satellite Orbit:

Table of predicted SNOs for the next 14.0 days since TLE Epoch: 8/26/2023
Index Date (FY3D) Time (FY3D) Lat,Lon (FY3D) SZA (FY3D ) Date (METOP-C) Time (METOP-C) Lat,Lon (METOP-C) SZA (METOP-C ) Distance(km) Time Diff (sec)
1 09/06/2023 05:28:13 75.75, 93.10 69.19 09/06/2023 05:29:18 75.71, 96.61 69.11 96.09 65
2 09/06/2023 06:18:54 -75.56, -98.95 111.00 09/06/2023 06:20:03 -75.52, -96.68 111.08 63.31 69
3 09/06/2023 07:09:36 75.36, 68.98 68.81 09/06/2023 07:10:47 75.36, 70.17 68.78 33.53 71
4 09/06/2023 08:00:18 -75.22,-123.26 111.34 09/06/2023 08:01:32 -75.16,-123.08 111.40 7.94 74
5 09/06/2023 08:51:03 75.16, 44.23 68.62 09/06/2023 08:52:13 75.14, 44.20 68.60 1.85 70
6 09/06/2023 09:41:48 -75.15,-148.44 111.38 09/06/2023 09:42:54 -75.14,-148.49 111.40 2.19 66
7 09/06/2023 10:32:34 75.14, 18.90 68.62 09/06/2023 10:33:34 75.17, 18.93 68.65 3.12 60
8 09/06/2023 11:23:19 -75.13,-173.76 111.37 09/06/2023 11:24:15 -75.16,-173.76 111.35 3.07 56
9 09/06/2023 12:14:05 75.12, -6.42 68.63 09/06/2023 12:14:56 75.14, -6.48 68.65 2.98 51
10 09/06/2023 13:04:51 -75.16, 160.77 111.32 09/06/2023 13:05:37 -75.14, 160.83 111.35 3.26 46
11 09/06/2023 13:55:37 75.15, -31.89 68.69 09/06/2023 13:56:18 75.12, -31.89 68.65 3.49 41
12 09/06/2023 14:46:22 -75.14, 135.45 111.31 09/06/2023 14:46:59 -75.11, 135.42 111.34 3.47 37
13 09/06/2023 15:37:07 75.13, -57.21 68.69 09/06/2023 15:37:38 75.14, -57.16 68.70 1.88 31
14 09/06/2023 16:27:52 -75.13, 110.12 111.30 09/06/2023 16:28:19 -75.14, 110.15 111.29 1.54 27
15 09/06/2023 17:18:38 75.11, -82.54 68.70 09/06/2023 17:19:00 75.12, -82.57 68.71 1.08 22
16 09/06/2023 18:09:23 -75.11, 84.80 111.30 09/06/2023 18:09:41 -75.11, 84.74 111.29 1.66 18
17 09/06/2023 19:00:09 75.10,-107.86 68.71 09/06/2023 19:00:22 75.10,-107.98 68.71 3.33 13
18 09/06/2023 19:50:54 -75.09, 59.47 111.29 09/06/2023 19:51:03 -75.09, 59.33 111.29 3.91 9
19 09/06/2023 20:41:41 75.13,-133.33 68.77 09/06/2023 20:41:43 75.12,-133.25 68.76 2.37 2
20 09/06/2023 21:32:26 -75.12, 34.00 111.23 09/06/2023 21:32:24 -75.11, 34.06 111.24 1.73 2
21 09/06/2023 22:23:12 75.11,-158.66 68.77 09/06/2023 22:23:05 75.09,-158.66 68.76 1.36 7
22 09/06/2023 23:13:57 -75.10, 8.68 111.23 09/06/2023 23:13:46 -75.09, 8.65 111.24 1.37 11
23 09/07/2023 00:04:43 75.09, 176.02 68.78 09/07/2023 00:04:27 75.07, 175.93 68.76 3.22 16
24 09/07/2023 00:55:28 -75.08, -16.65 111.22 09/07/2023 00:55:08 -75.07, -16.75 111.23 3.58 20
25 09/07/2023 01:46:14 75.07, 150.69 68.79 09/07/2023 01:45:48 75.09, 150.66 68.81 2.83 26
26 09/07/2023 02:36:59 -75.06, -41.97 111.21 09/07/2023 02:36:29 -75.09, -42.03 111.18 3.29 30
27 09/07/2023 03:27:46 75.10, 125.23 68.84 09/07/2023 03:27:10 75.07, 125.25 68.82 3.33 36
28 09/07/2023 04:18:31 -75.09, -67.44 111.16 09/07/2023 04:17:51 -75.07, -67.43 111.18 2.97 40
29 09/07/2023 05:09:17 75.08, 99.90 68.85 09/07/2023 05:08:31 75.09, 99.98 68.87 2.66 46
30 09/07/2023 06:00:02 -75.07, -92.76 111.15 09/07/2023 05:59:12 -75.09, -92.71 111.13 2.36 50
31 09/07/2023 06:50:48 75.06, 74.58 68.86 09/07/2023 06:49:53 75.07, 74.57 68.87 0.77 55
32 09/07/2023 07:41:33 -75.06,-118.09 111.14 09/07/2023 07:40:34 -75.06,-118.11 111.13 1.30 59
33 09/07/2023 08:32:19 75.05, 49.25 68.87 09/07/2023 08:31:15 75.05, 49.16 68.87 2.51 64
34 09/07/2023 09:23:04 -75.04,-143.41 111.13 09/07/2023 09:21:56 -75.04,-143.52 111.13 3.14 68
35 09/07/2023 10:13:51 75.07, 23.78 68.92 09/07/2023 10:12:36 75.07, 23.89 68.92 3.12 75
36 09/07/2023 11:04:33 -74.92,-168.46 111.22 09/07/2023 11:03:20 -74.92,-169.20 111.22 21.31 73
37 09/07/2023 11:55:14 74.67, -0.45 68.54 09/07/2023 11:54:05 74.71, -2.46 68.60 59.12 69
38 09/07/2023 12:45:56 -74.52, 167.28 111.61 09/07/2023 12:44:49 -74.56, 164.47 111.54 83.22 67



Historial Predications of SNOs between FY3D and METOP-C
